Time,TemperatureF,DewpointF,PressureIn,WindDirection,WindDirectionDegrees,WindSpeedMPH,WindSpeedGustMPH,Humidity,HourlyPrecipIn,Conditions,Clouds,dailyrainin,SoftwareType,DateUTC
2014-08-27 00:24:00,71.0,70.0,30.01,West,271,0.0,2.0,96,0.00,,,-99.99,,2014-08-27 04:24:00,
2014-08-27 00:44:00,71.0,69.0,30.00,SW,230,0.0,5.0,95,0.00,,,-99.99,,2014-08-27 04:44:00,
2014-08-27 01:23:00,70.0,68.0,30.02,SW,230,0.0,1.0,95,0.00,,,-99.99,,2014-08-27 05:23:00,
2014-08-27 01:43:00,70.0,68.0,30.01,SW,230,0.0,0.0,95,0.00,,,-99.99,,2014-08-27 05:43:00,
2014-08-27 01:53:00,70.0,68.0,30.01,SW,230,0.0,2.0,95,0.00,,,-99.99,,2014-08-27 05:53:00,
2014-08-27 02:13:00,70.0,68.0,30.01,SW,230,0.0,1.0,94,0.00,,,-99.99,,2014-08-27 06:13:00,
2014-08-27 02:23:00,70.0,68.0,30.01,SW,230,0.0,0.0,94,0.00,,,-99.99,,2014-08-27 06:23:00,
2014-08-27 02:43:00,70.0,68.0,30.01,SW,230,0.0,3.0,95,0.00,,,-99.99,,2014-08-27 06:43:00,
2014-08-27 02:52:00,70.0,68.0,30.01,SW,230,0.0,1.0,94,0.00,,,-99.99,,2014-08-27 06:52:00,
2014-08-27 03:22:00,69.0,67.0,30.01,SW,230,0.0,1.0,94,0.00,,,-99.99,,2014-08-27 07:22:00,
2014-08-27 03:43:00,69.0,68.0,30.01,SW,230,0.0,1.0,95,0.00,,,-99.99,,2014-08-27 07:43:00,
2014-08-27 03:53:00,69.0,68.0,30.00,SW,230,0.0,1.0,95,0.00,,,-99.99,,2014-08-27 07:53:00,
2014-08-27 04:22:00,68.0,67.0,30.00,SW,230,0.0,3.0,95,0.00,,,-99.99,,2014-08-27 08:22:00,
2014-08-27 04:42:00,69.0,67.0,30.00,SW,231,0.0,3.0,94,0.00,,,-99.99,,2014-08-27 08:42:00,
2014-08-27 04:53:00,68.0,66.0,30.00,SW,230,0.0,1.0,94,0.00,,,-99.99,,2014-08-27 08:53:00,
2014-08-27 05:24:00,68.0,66.0,30.00,SW,230,0.0,0.0,94,0.00,,,-99.99,,2014-08-27 09:24:00,
2014-08-27 05:54:00,67.0,66.0,30.01,SW,230,0.0,0.0,95,0.00,,,-99.99,,2014-08-27 09:54:00,
2014-08-27 06:53:00,68.0,66.0,30.01,SW,230,0.0,1.0,94,0.00,,,-99.99,,2014-08-27 10:53:00,
2014-08-27 07:23:00,68.0,66.0,30.01,SW,230,0.0,0.0,94,0.00,,,-99.99,,2014-08-27 11:23:00,
2014-08-27 07:43:00,68.0,66.0,30.02,SW,230,0.0,0.0,94,0.00,,,-99.99,,2014-08-27 11:43:00,
2014-08-27 07:52:00,68.0,67.0,30.01,SW,231,0.0,0.0,95,0.00,,,-99.99,,2014-08-27 11:52:00,
2014-08-27 09:22:00,72.0,70.0,30.02,SW,230,0.0,1.0,94,0.00,,,-99.99,,2014-08-27 13:22:00,
2014-08-27 10:43:00,78.0,73.0,30.01,West,269,0.0,3.0,85,0.00,,,-99.99,,2014-08-27 14:43:00,
2014-08-27 10:52:00,78.0,73.0,30.01,WNW,298,0.0,1.0,86,0.00,,,-99.99,,2014-08-27 14:52:00,
2014-08-27 11:44:00,81.0,75.0,30.02,NNW,327,0.0,2.0,81,0.00,,,-99.99,,2014-08-27 15:44:00,
2014-08-27 12:23:00,82.0,75.0,30.02,West,273,0.0,1.0,80,0.00,,,-99.99,,2014-08-27 16:23:00,
2014-08-27 12:54:00,83.0,75.0,30.01,WNW,300,0.0,2.0,77,0.00,,,-99.99,,2014-08-27 16:54:00,
2014-08-27 13:23:00,83.0,75.0,30.00,SW,229,0.0,2.0,76,0.00,,,-99.99,,2014-08-27 17:23:00,
2014-08-27 13:44:00,84.0,74.0,30.00,WNW,291,0.0,2.0,71,0.00,,,-99.99,,2014-08-27 17:44:00,
2014-08-27 13:54:00,84.0,75.0,29.99,WSW,249,0.0,1.0,74,0.00,,,-99.99,,2014-08-27 17:54:00,
2014-08-27 14:22:00,85.0,75.0,29.98,NNW,348,5.0,5.0,72,0.00,,,-99.99,,2014-08-27 18:22:00,
2014-08-27 15:53:00,88.0,74.0,29.96,WNW,298,0.0,1.0,64,0.00,,,-99.99,,2014-08-27 19:53:00,
2014-08-27 16:24:00,87.0,74.0,29.95,SW,229,0.0,2.0,66,0.00,,,-99.99,,2014-08-27 20:24:00,
2014-08-27 16:52:00,86.0,75.0,29.94,SW,231,0.0,1.0,69,0.00,,,-99.99,,2014-08-27 20:52:00,
2014-08-27 17:22:00,89.0,77.0,29.93,NNW,340,4.0,5.0,67,0.00,,,-99.99,,2014-08-27 21:22:00,
2014-08-27 17:44:00,90.0,77.0,29.93,NNW,340,0.0,1.0,65,0.00,,,-99.99,,2014-08-27 21:44:00,
2014-08-27 17:54:00,91.0,76.0,29.93,North,360,3.0,5.0,62,0.00,,,-99.99,,2014-08-27 21:54:00,
2014-08-27 19:22:00,84.0,74.0,29.92,NNW,340,0.0,8.0,71,0.00,,,-99.99,,2014-08-27 23:22:00,
2014-08-27 19:53:00,81.0,73.0,29.93,NW,325,2.0,6.0,76,0.00,,,-99.99,,2014-08-27 23:53:00,
2014-08-27 20:22:00,79.0,72.0,29.94,NNW,328,0.0,5.0,79,0.00,,,-99.99,,2014-08-28 00:22:00,
2014-08-27 20:43:00,78.0,72.0,29.94,NNW,327,0.0,5.0,81,0.00,,,-99.99,,2014-08-28 00:43:00,
2014-08-27 20:52:00,77.0,71.0,29.95,NNW,332,0.0,4.0,82,0.00,,,-99.99,,2014-08-28 00:52:00,
2014-08-27 21:43:00,75.0,70.0,29.95,NNW,335,0.0,5.0,85,0.00,,,-99.99,,2014-08-28 01:43:00,
2014-08-27 21:53:00,74.0,70.0,29.96,NNW,335,3.0,5.0,86,0.00,,,-99.99,,2014-08-28 01:53:00,
2014-08-27 22:22:00,73.0,69.0,29.96,NNW,338,3.0,7.0,88,0.00,,,-99.99,,2014-08-28 02:22:00,